Location: Balsareny
(41.8670°N, 1.8830°E)
Time: 05:01:41
(UTC+01:00)

N. Korean satellite - Pass Details

Date: 02 December 2021
Orbit: 447 x 491 km, 97.3° (Epoch: 23 January)

Event Time Altitude Azimuth Distance (km) Brightness Sun altitude
Rises 05:14:45 0° 30° (NNE) 2,464 10.5 -30.4°
Reaches altitude 10° 05:17:24 10° 53° (NE) 1,581 9.7 -29.9°
Maximum altitude 05:19:34 16° 93° (E) 1,254 9.4 -29.5°
Drops below altitude 10° 05:21:43 10° 133° (SE) 1,568 9.7 -29.1°
Sets 05:24:19 0° 156° (SSE) 2,434 10.5 -28.6°
